Previsão horária em Abadszalok

Hoje, 20 Outubro, Terça-feira

Tempo Temperatura Precipitação Vento Pressão Humidade
00:00 +9°C° 0 mm 1 m/s 762 mmHg 76%
01:00 +9°C° 0 mm 1 m/s 763 mmHg 76%
02:00 +9°C° 0 mm 1 m/s 763 mmHg 77%
03:00 +9°C° 0 mm 1 m/s 762 mmHg 78%
04:00 +8°C° 0 mm 1 m/s 762 mmHg 79%
05:00 +8°C° 0 mm 1 m/s 763 mmHg 80%
06:00 +8°C° 0 mm 1 m/s 763 mmHg 80%
07:00 +8°C° 0 mm 1 m/s 763 mmHg 80%
08:00 +10°C° 0 mm 1 m/s 763 mmHg 74%
09:00 +11°C° 0 mm 1 m/s 763 mmHg 67%
10:00 +13°C° 0 mm 1 m/s 763 mmHg 61%
11:00 +13°C° 0 mm 1 m/s 763 mmHg 58%
12:00 +14°C° 0 mm 2 m/s 763 mmHg 54%
13:00 +15°C° 0 mm 2 m/s 763 mmHg 51%
14:00 +14°C° 0 mm 2 m/s 762 mmHg 53%
15:00 +14°C° 0 mm 2 m/s 762 mmHg 56%
16:00 +14°C° 0 mm 2 m/s 761 mmHg 58%
17:00 +13°C° 0 mm 2 m/s 762 mmHg 60%
18:00 +12°C° 0 mm 2 m/s 762 mmHg 62%
19:00 +10°C° 0 mm 2 m/s 762 mmHg 64%
20:00 +9°C° 0 mm 2 m/s 762 mmHg 65%
21:00 +9°C° 0 mm 2 m/s 762 mmHg 67%
22:00 +9°C° 0 mm 2 m/s 762 mmHg 68%
23:00 +8°C° 0 mm 2 m/s 762 mmHg 70%

Amanhã, 21 Outubro, Quarta-feira

Tempo Temperatura Precipitação Vento Pressão Humidade
00:00 +8°C° 0 mm 2 m/s 762 mmHg 71%
01:00 +8°C° 0 mm 2 m/s 762 mmHg 72%
02:00 +8°C° 0 mm 2 m/s 761 mmHg 73%
03:00 +7°C° 0 mm 2 m/s 761 mmHg 73%
04:00 +7°C° 0 mm 2 m/s 760 mmHg 74%
05:00 +7°C° 0 mm 2 m/s 760 mmHg 74%
06:00 +7°C° 0 mm 2 m/s 760 mmHg 74%
07:00 +7°C° 0 mm 2 m/s 760 mmHg 74%
08:00 +9°C° 0 mm 3 m/s 760 mmHg 69%
09:00 +10°C° 0 mm 3 m/s 760 mmHg 63%
10:00 +12°C° 0 mm 4 m/s 760 mmHg 57%
11:00 +13°C° 0 mm 4 m/s 760 mmHg 55%
12:00 +14°C° 0 mm 4 m/s 759 mmHg 53%
13:00 +15°C° 0 mm 4 m/s 759 mmHg 50%
14:00 +16°C° 0 mm 3 m/s 759 mmHg 53%
15:00 +14°C° 0 mm 3 m/s 758 mmHg 55%
16:00 +15°C° 0 mm 2 m/s 758 mmHg 58%
17:00 +14°C° 0 mm 2 m/s 758 mmHg 60%
18:00 +13°C° 0 mm 2 m/s 758 mmHg 62%
19:00 +12°C° 0 mm 2 m/s 759 mmHg 65%
20:00 +12°C° 0 mm 2 m/s 759 mmHg 66%
21:00 +12°C° 0 mm 2 m/s 759 mmHg 67%
22:00 +10°C° 0 mm 2 m/s 759 mmHg 68%
23:00 +10°C° 0 mm 2 m/s 759 mmHg 69%

Depois de amanhã, 22 Outubro, Quinta-feira

Tempo Temperatura Precipitação Vento Pressão Humidade
00:00 +10°C° 0 mm 2 m/s 759 mmHg 69%
01:00 +10°C° 0 mm 1 m/s 759 mmHg 70%
02:00 +9°C° 0 mm 2 m/s 759 mmHg 71%
03:00 +9°C° 0 mm 2 m/s 759 mmHg 72%
04:00 +9°C° 0 mm 2 m/s 759 mmHg 73%
05:00 +9°C° 0 mm 2 m/s 759 mmHg 73%
06:00 +8°C° 0 mm 2 m/s 759 mmHg 74%
07:00 +8°C° 0 mm 2 m/s 759 mmHg 75%
08:00 +10°C° 0 mm 2 m/s 759 mmHg 69%
09:00 +13°C° 0 mm 2 m/s 759 mmHg 63%
10:00 +14°C° 0 mm 2 m/s 760 mmHg 57%
11:00 +15°C° 0 mm 2 m/s 759 mmHg 57%
12:00 +16°C° 0 mm 2 m/s 759 mmHg 56%
13:00 +17°C° 0 mm 2 m/s 759 mmHg 55%
14:00 +17°C° 0 mm 2 m/s 758 mmHg 59%
15:00 +16°C° 0 mm 1 m/s 758 mmHg 62%
16:00 +16°C° 0 mm 1 m/s 758 mmHg 66%
17:00 +15°C° 0 mm 1 m/s 758 mmHg 69%
18:00 +14°C° 0 mm 1 m/s 758 mmHg 72%
19:00 +13°C° 0 mm 1 m/s 758 mmHg 75%
20:00 +13°C° 0 mm 1 m/s 758 mmHg 77%
21:00 +12°C° 0 mm 1 m/s 758 mmHg 79%
22:00 +12°C° 0 mm 1 m/s 758 mmHg 81%
23:00 +12°C° 0 mm 1 m/s 757 mmHg 83%

23 Outubro, Sexta-feira

Tempo Temperatura Precipitação Vento Pressão Humidade
00:00 +12°C° 0 mm 1 m/s 757 mmHg 85%
01:00 +11°C° 0 mm 1 m/s 757 mmHg 87%
02:00 +11°C° 0 mm 1 m/s 757 mmHg 87%
03:00 +11°C° 0 mm 1 m/s 757 mmHg 87%
04:00 +11°C° 0 mm 1 m/s 756 mmHg 87%
05:00 +9°C° 0 mm 2 m/s 756 mmHg 84%
06:00 +9°C° 0 mm 2 m/s 756 mmHg 81%
07:00 +9°C° 0 mm 2 m/s 756 mmHg 77%
08:00 +12°C° 0 mm 2 m/s 756 mmHg 70%
09:00 +13°C° 0 mm 3 m/s 756 mmHg 62%
10:00 +16°C° 0 mm 3 m/s 756 mmHg 54%
11:00 +16°C° 0 mm 3 m/s 755 mmHg 54%
12:00 +17°C° 0 mm 4 m/s 755 mmHg 55%
13:00 +18°C° 0 mm 4 m/s 754 mmHg 55%
14:00 +18°C° 0 mm 3 m/s 754 mmHg 59%
15:00 +17°C° 0 mm 2 m/s 754 mmHg 63%
16:00 +16°C° 0 mm 1 m/s 753 mmHg 67%
17:00 +16°C° 0 mm 1 m/s 753 mmHg 70%
18:00 +15°C° 0 mm 1 m/s 753 mmHg 73%
19:00 +14°C° 0 mm 1 m/s 753 mmHg 76%
20:00 +14°C° 0 mm 1 m/s 753 mmHg 77%
21:00 +14°C° 0 mm 1 m/s 753 mmHg 78%
22:00 +14°C° 0 mm 1 m/s 753 mmHg 78%
23:00 +14°C° 0 mm 2 m/s 753 mmHg 79%

24 Outubro, Sábado

Tempo Temperatura Precipitação Vento Pressão Humidade
00:00 +14°C° 0 mm 2 m/s 753 mmHg 80%
01:00 +14°C° 0 mm 2 m/s 752 mmHg 81%
02:00 +14°C° 0 mm 2 m/s 752 mmHg 78%
03:00 +14°C° 0 mm 2 m/s 752 mmHg 75%
04:00 +13°C° 0 mm 3 m/s 752 mmHg 72%
05:00 +13°C° 0 mm 3 m/s 752 mmHg 74%
06:00 +13°C° 0 mm 3 m/s 752 mmHg 76%
07:00 +13°C° 0 mm 3 m/s 753 mmHg 78%
08:00 +14°C° 0 mm 4 m/s 753 mmHg 77%
09:00 +15°C° 0 mm 4 m/s 753 mmHg 75%
10:00 +15°C° 0 mm 5 m/s 753 mmHg 73%
11:00 +16°C° 0 mm 5 m/s 753 mmHg 70%
12:00 +17°C° 0 mm 5 m/s 754 mmHg 67%
13:00 +19°C° 0 mm 6 m/s 754 mmHg 64%
14:00 +17°C° 0 mm 5 m/s 754 mmHg 65%
15:00 +16°C° 0 mm 5 m/s 754 mmHg 65%
16:00 +16°C° 0 mm 5 m/s 754 mmHg 65%
17:00 +15°C° 0 mm 5 m/s 754 mmHg 66%
18:00 +14°C° 0 mm 5 m/s 755 mmHg 66%
19:00 +13°C° 0 mm 5 m/s 755 mmHg 66%
20:00 +13°C° 0 mm 5 m/s 755 mmHg 66%
21:00 +12°C° 0 mm 5 m/s 755 mmHg 66%
22:00 +12°C° 0 mm 5 m/s 756 mmHg 66%
23:00 +11°C° 0 mm 4 m/s 756 mmHg 68%

25 Outubro, Domingo

Tempo Temperatura Precipitação Vento Pressão Humidade
00:00 +10°C° 0 mm 3 m/s 756 mmHg 70%
01:00 +10°C° 0 mm 3 m/s 756 mmHg 72%
02:00 +10°C° 0 mm 2 m/s 756 mmHg 72%
03:00 +10°C° 0 mm 2 m/s 756 mmHg 72%
04:00 +10°C° 0 mm 2 m/s 756 mmHg 72%
05:00 +10°C° 0 mm 2 m/s 756 mmHg 73%
06:00 +11°C° 0 mm 1 m/s 757 mmHg 75%
07:00 +11°C° 0 mm 1 m/s 757 mmHg 76%
08:00 +12°C° 0 mm 2 m/s 757 mmHg 71%
09:00 +13°C° 0 mm 2 m/s 757 mmHg 65%
10:00 +15°C° 0 mm 2 m/s 757 mmHg 60%
11:00 +14°C° 0 mm 3 m/s 757 mmHg 57%
12:00 +16°C° 0 mm 3 m/s 757 mmHg 54%
13:00 +17°C° 0 mm 3 m/s 756 mmHg 51%
14:00 +16°C° 0 mm 3 m/s 756 mmHg 54%
15:00 +15°C° 0 mm 2 m/s 756 mmHg 58%
16:00 +15°C° 0 mm 2 m/s 756 mmHg 61%
17:00 +14°C° 0 mm 2 m/s 756 mmHg 65%
18:00 +13°C° 0 mm 2 m/s 756 mmHg 68%
19:00 +12°C° 0 mm 2 m/s 756 mmHg 71%
20:00 +10°C° 0 mm 2 m/s 756 mmHg 73%
21:00 +10°C° 0 mm 2 m/s 757 mmHg 76%
22:00 +9°C° 0 mm 2 m/s 757 mmHg 78%
23:00 +9°C° 0 mm 2 m/s 757 mmHg 79%

26 Outubro, Segunda-feira

Tempo Temperatura Precipitação Vento Pressão Humidade
00:00 +9°C° 0 mm 2 m/s 756 mmHg 81%
01:00 +8°C° 0 mm 2 m/s 756 mmHg 83%
02:00 +8°C° 0 mm 2 m/s 756 mmHg 84%
03:00 +8°C° 0 mm 2 m/s 756 mmHg 86%
04:00 +7°C° 0 mm 2 m/s 756 mmHg 87%
05:00 +7°C° 0 mm 2 m/s 756 mmHg 87%
06:00 +7°C° 0 mm 2 m/s 756 mmHg 87%
07:00 +7°C° 0 mm 2 m/s 756 mmHg 87%
08:00 +9°C° 0 mm 2 m/s 756 mmHg 80%
09:00 +10°C° 0 mm 3 m/s 756 mmHg 72%
10:00 +12°C° 0 mm 3 m/s 756 mmHg 65%
11:00 +13°C° 0 mm 3 m/s 755 mmHg 61%
12:00 +14°C° 0 mm 3 m/s 755 mmHg 58%
13:00 +16°C° 0 mm 3 m/s 755 mmHg 54%
14:00 +15°C° 0 mm 2 m/s 754 mmHg 57%
15:00 +14°C° 0 mm 2 m/s 754 mmHg 60%
16:00 +14°C° 0 mm 2 m/s 753 mmHg 63%
17:00 +13°C° 0 mm 2 m/s 753 mmHg 66%
18:00 +12°C° 0 mm 2 m/s 754 mmHg 70%
19:00 +10°C° 0 mm 2 m/s 754 mmHg 73%
20:00 +10°C° 0 mm 2 m/s 754 mmHg 74%
21:00 +9°C° 0 mm 2 m/s 754 mmHg 76%
22:00 +9°C° 0 mm 2 m/s 754 mmHg 77%
23:00 +9°C° 0 mm 2 m/s 754 mmHg 78%
Mostrar mais